Simultaneous Nadir Overpasses (SNOs) Predictions

Prediction of SNOs between AQUA and GOES-15 Satellite Orbit:

Table of predicted SNOs for the next 14.0 days since TLE Epoch: 8/29/2025
Index Date Time (AQUA) AQUA Lat,Lon GOES-15 Lat,Lon Distance(km) Time Diff (sec)
1 08/31/2025 10:39:06 0.81, 63.01 0.50, 61.52 170.00 80
2 08/31/2025 22:58:10 0.21, 58.41 -0.48, 61.53 355.13 80
3 09/02/2025 22:37:38 -0.91, 63.44 -0.50, 61.51 219.43 80
4 09/03/2025 10:56:51 -0.10, 58.79 0.47, 61.49 306.75 80
5 09/05/2025 10:36:17 1.02, 63.82 0.50, 61.47 268.43 80
6 09/05/2025 22:55:21 0.04, 59.23 -0.47, 61.47 255.85 80
7 09/07/2025 22:34:47 -1.12, 64.25 -0.49, 61.46 318.76 80
8 09/08/2025 10:54:00 0.08, 59.62 0.46, 61.45 208.06 80
9 09/10/2025 10:33:24 1.17, 64.66 0.48, 61.43 367.11 80
10 09/10/2025 22:52:28 -0.14, 60.06 -0.45, 61.43 156.39 80
